This is the latest recevied weather packets stored in our database for station/object N2RDT. If no packets are shown the sender has not sent any weather packets the latest 10 day(s).
| Time | Temp. | Humidity | Pressure | Rain* | Wind** | Luminosity | Snow |
|---|---|---|---|---|---|---|---|
| 1777749334 | 12.78° C | 82% | 1012.5 hPa | 0 mm | - | 399 W/m² | - |
| 1777749032 | 12.78° C | 82% | 1012.4 hPa | 0 mm | - | 349 W/m² | - |
| 1777748729 | 12.78° C | 83% | 1012.5 hPa | 0 mm | - | 186 W/m² | - |
| 1777748426 | 12.78° C | 82% | 1012.4 hPa | 0 mm | - | 278 W/m² | - |
| 1777748121 | 12.78° C | 84% | 1012.8 hPa | 0 mm | - | 207 W/m² | - |
| 1777747818 | 12.78° C | 84% | 1012.6 hPa | 0 mm | - | 248 W/m² | - |
| 1777747514 | 12.78° C | 85% | 1012.7 hPa | 0 mm | - | 385 W/m² | - |
| 1777747210 | 12.78° C | 85% | 1012.8 hPa | 0 mm | - | 332 W/m² | - |
| 1777746907 | 12.78° C | 85% | 1012.6 hPa | 0 mm | - | 412 W/m² | - |
| 1777746601 | 13.33° C | 82% | 1012.9 hPa | 0 mm | - | 387 W/m² | - |
| 1777746297 | 12.78° C | 85% | 1013 hPa | 0 mm | - | 526 W/m² | - |
| 1777745994 | 12.78° C | 87% | 1013.1 hPa | 0 mm | - | 439 W/m² | - |
| 1777745692 | 12.22° C | 87% | 1013.2 hPa | 0 mm | - | 255 W/m² | - |
| 1777745391 | 12.22° C | 88% | 1013 hPa | 0 mm | - | 298 W/m² | - |
| 1777745087 | 11.67° C | 88% | 1013.1 hPa | 0 mm | - | 232 W/m² | - |
| 1777744783 | 12.22° C | 89% | 1013.1 hPa | 0 mm | - | 323 W/m² | - |
| 1777744478 | 11.67° C | 89% | 1013.3 hPa | 0 mm | - | 277 W/m² | - |
| 1777744175 | 11.67° C | 90% | 1012.8 hPa | 0 mm | - | 209 W/m² | - |
| 1777743872 | 11.67° C | 88% | 1012.8 hPa | 0 mm | - | 210 W/m² | - |
| 1777743568 | 11.67° C | 90% | 1012.8 hPa | 0 mm | - | 260 W/m² | - |
| 1777743265 | 11.67° C | 89% | 1012.8 hPa | 0 mm | - | 309 W/m² | - |
| 1777742964 | 11.67° C | 90% | 1012.7 hPa | 0 mm | - | 270 W/m² | - |
| 1777742660 | 11.11° C | 89% | 1013 hPa | 0 mm | - | 228 W/m² | - |
| 1777742356 | 11.67° C | 89% | 1013.1 hPa | 0.51 mm | - | 224 W/m² | - |
| 1777742052 | 11.67° C | 89% | 1013.3 hPa | 0.51 mm | - | 183 W/m² | - |
* Rain latest hour (hover to see other rain measurements)
** Current wind speed in m/s (hover to see current wind gust speed)